CW9804 Weather Reports


Display with metric or nautical units.
time (UTC)temp
F
wind
direction
speed
MPH
gust
MPH
rain 1hr
in
rain 24hr
in
rain mn
in
humidity
%
barometer
mb
20260508003412 48 126 0.0 2.0 0.00 0.00 0.00 83 1016.8
20260508001912 50 126 1.0 2.0 0.00 0.00 0.00 81 1016.8
20260508000412 49 126 0.0 2.0 0.00 0.00 0.00 83 1016.8
20260507234912 50 97 0.0 0.0 0.00 0.00 0.00 81 1016.8
20260507233412 50 58 0.0 1.0 0.00 0.00 0.00 81 1016.8
20260507231911 50 57 0.0 2.0 0.00 0.00 0.00 80 1017.1
20260507230411 51 58 0.0 1.0 0.00 0.00 0.00 79 1017.0
20260507224911 53 58 0.0 0.0 0.00 0.00 0.00 76 1017.1
20260507223412 53 57 0.0 2.0 0.00 0.00 0.00 74 1017.1
20260507221911 55 57 0.0 3.0 0.00 0.00 0.00 72 1017.2
20260507220411 55 54 2.0 3.0 0.00 0.00 0.00 70 1017.0
20260507211911 57 54 2.0 4.0 0.00 0.00 0.00 67 1016.8
20260507210411 57 74 1.0 4.0 0.00 0.00 0.00 66 1016.6
20260507204911 58 78 2.0 4.0 0.00 0.00 0.00 66 1016.5
20260507203411 58 79 4.0 8.0 0.00 0.00 0.00 67 1016.2
20260507201911 59 93 4.0 9.0 0.00 0.00 0.00 67 1015.9
20260507200411 60 34 0.0 3.0 0.00 0.00 0.00 62 1015.6
20260507194915 61 306 3.0 6.0 0.00 0.00 0.00 61 1015.2
20260507193415 61 236 5.0 13.0 0.00 0.00 0.00 63 1014.9
20260507191915 61 251 3.0 6.0 0.00 0.00 0.00 64 1014.5
20260507190415 62 305 3.0 5.0 0.00 0.00 0.00 63 1014.4
20260507184915 62 244 5.0 10.0 0.00 0.00 0.00 64 1013.8
20260507183414 62 227 4.0 9.0 0.00 0.00 0.00 63 1013.5
20260507181914 64 275 2.0 3.0 0.00 0.00 0.00 62 1013.4
20260507180414 64 218 2.0 7.0 0.00 0.00 0.00 63 1013.3
20260507174914 64 232 4.0 13.0 0.00 0.00 0.00 65 1012.9
20260507173414 65 249 3.0 9.0 0.00 0.00 0.00 67 1012.8
20260507171913 65 262 4.0 9.0 0.00 0.00 0.00 65 1012.7
20260507170413 67 260 5.0 8.0 0.00 0.00 0.00 64 1012.8
20260507164913 68 231 8.0 12.0 0.00 0.00 0.00 61 1012.8
20260507163413 69 166 5.0 9.0 0.00 0.00 0.00 60 1012.8
20260507161913 69 178 4.0 10.0 0.00 0.00 0.00 59 1012.7
20260507160413 70 133 3.0 9.0 0.00 0.00 0.00 58 1012.8
20260507154913 70 231 3.0 10.0 0.00 0.00 0.00 57 1012.4
20260507153413 71 165 3.0 11.0 0.00 0.00 0.00 56 1012.4
20260507151913 71 250 6.0 10.0 0.00 0.00 0.00 57 1012.3
20260507150413 71 279 3.0 13.0 0.00 0.00 0.00 57 1012.3
20260507144912 71 225 4.0 8.0 0.00 0.00 0.00 59 1012.3
20260507143412 70 143 2.0 11.0 0.00 0.00 0.00 58 1012.4
20260507141912 70 271 5.0 11.0 0.00 0.00 0.00 57 1012.3
20260507140412 70 218 5.0 11.0 0.00 0.00 0.00 57 1012.4
20260507134912 70 285 5.0 12.0 0.00 0.00 0.00 58 1012.6
20260507133412 70 243 6.0 10.0 0.00 0.00 0.00 59 1012.7
20260507131912 68 247 5.0 10.0 0.00 0.00 0.00 61 1012.8
20260507130412 67 184 4.0 8.0 0.00 0.00 0.00 64 1012.9
20260507124911 67 222 6.0 9.0 0.00 0.00 0.00 63 1012.9
20260507120411 68 213 5.0 10.0 0.00 0.00 0.00 61 1013.4
20260507114911 68 213 3.0 9.0 0.00 0.00 0.00 61 1013.3
20260507113411 69 236 6.0 10.0 0.00 0.00 0.00 57 1013.3
20260507111910 69 232 1.0 9.0 0.00 0.00 0.00 52 1013.4
20260507110410 70 21 1.0 6.0 0.00 0.00 0.00 55 1013.4
20260507104913 69 322 3.0 5.0 0.00 0.00 0.00 60 1013.5
20260507103413 67 45 2.0 4.0 0.00 0.00 0.00 61 1013.6
20260507101912 67 197 4.0 7.0 0.00 0.00 0.00 60 1013.9
20260507100412 66 313 2.0 5.0 0.00 0.00 0.00 62 1014.1
20260507094912 66 273 2.0 8.0 0.00 0.00 0.00 62 1014.4
20260507093412 66 290 5.0 9.0 0.00 0.00 0.00 64 1014.5
20260507091912 64 5 2.0 5.0 0.00 0.00 0.00 70 1014.5
20260507090412 63 83 1.0 4.0 0.00 0.00 0.00 69 1014.4
20260507084912 62 165 1.0 3.0 0.00 0.00 0.00 75 1014.4
20260507083412 62 31 0.0 3.0 0.00 0.00 0.00 73 1014.3
20260507081912 62 78 1.0 4.0 0.00 0.00 0.00 76 1014.2
20260507080411 61 68 3.0 4.0 0.00 0.00 0.00 77 1014.2
20260507074911 59 93 3.0 6.0 0.00 0.00 0.00 79 1014.1
20260507073411 59 58 3.0 5.0 0.00 0.00 0.00 80 1013.9
20260507071911 58 77 1.0 6.0 0.00 0.00 0.00 80 1013.7
20260507070411 58 65 5.0 8.0 0.00 0.00 0.00 80 1013.9
20260507064911 58 236 1.0 3.0 0.00 0.00 0.00 81 1013.6
20260507063411 58 44 1.0 2.0 0.00 0.00 0.00 80 1013.4
20260507061911 59 320 0.0 6.0 0.00 0.00 0.00 77 1013.3
20260507060411 59 213 6.0 8.0 0.00 0.00 0.00 75 1013.3
20260507054910 59 268 3.0 10.0 0.00 0.00 0.00 75 1013.3
20260507053410 59 250 5.0 11.0 0.00 0.00 0.00 76 1013.1
20260507051910 59 192 7.0 11.0 0.00 0.00 0.00 75 1012.9
20260507050415 59 250 5.0 10.0 0.00 0.00 0.00 75 1012.8
20260507044915 58 226 6.0 12.0 0.00 0.00 0.00 75 1012.7
20260507043415 58 272 5.0 9.0 0.00 0.00 0.00 76 1012.6
20260507041915 58 252 5.0 11.0 0.00 0.00 0.00 77 1012.5
20260507040414 58 254 5.0 11.0 0.00 0.00 0.00 78 1012.5
20260507034914 58 229 7.0 13.0 0.00 0.00 0.00 78 1012.4
20260507033414 58 263 3.0 7.0 0.00 0.00 0.00 78 1012.4
20260507031914 58 259 5.0 8.0 0.00 0.00 0.00 78 1012.3
20260507030414 58 237 4.0 8.0 0.00 0.00 0.00 78 1012.4
20260507024914 57 258 4.0 9.0 0.00 0.00 0.00 79 1012.1
20260507023413 56 244 6.0 8.0 0.00 0.00 0.00 79 1012.0
20260507021913 56 215 4.0 8.0 0.00 0.00 0.00 79 1012.1
20260507020413 56 275 3.0 6.0 0.00 0.00 0.00 78 1012.1
20260507014913 56 254 3.0 6.0 0.00 0.00 0.00 78 1012.2
20260507013413 56 238 2.0 5.0 0.00 0.00 0.00 77 1011.9
20260507011913 57 267 3.0 6.0 0.00 0.00 0.00 76 1012.0
20260507010413 57 269 4.0 7.0 0.00 0.00 0.00 75 1012.0
20260507004912 58 265 3.0 8.0 0.00 0.00 0.00 75 1012.2